Regional Weather Roundup
Issued by NWS

Home | Current Version | Previous Version | Graphics & Text | Print | Product List | Glossary On
Versions: 1 2 3 4 5 6 7 8 9 10 11 12 13 14 15 16 17 18 19 20 21 22 23 24 25 26 27 28 29 30 31 32 33 34 35 36 37 38 39 40 41 42 43 44 45 46 47 48 49 50
000
ASUS43 KBIS 071910
RWRND

NORTH DAKOTA REGIONAL WEATHER ROUNDUP
NATIONAL WEATHER SERVICE BISMARCK ND
100 PM CST WED DEC 07 2016

NOTE: "FAIR" INDICATES FEW OR NO CLOUDS BELOW 12,000 FEET WITH NO
SIGNIFICANT WEATHER AND/OR OBSTRUCTIONS TO VISIBILITY.


NDZ001>003-009>011-017-072000-
NORTHWEST NORTH DAKOTA

CITY           SKY/WX    TMP DP  RH WIND       PRES   REMARKS
WILLISTON      CLOUDY     0  -9  65 W15G25    30.43R WCI -19
MINOT          LGT SNOW   6   1  80 W37G45    30.22R VSB 3/4 WCI -20
MINOT AFB      HVY SNOW   4   0  82 NW37G45   30.20R VSB 1/4 WCI -22
$$

NDZ018>021-031>035-040>046-072000-
SOUTHWEST NORTH DAKOTA

CITY           SKY/WX    TMP DP  RH WIND       PRES   REMARKS
BISMARCK       CLOUDY     5  -1  76 NW26G37   30.28S WCI -18
DICKINSON      BLWGSNOW   0  -7  72 NW33G40   30.28S VSB 1   WCI -27
GARRISON         N/A      2  -3  80 NW37G47   30.23R WCI -25
HETTINGER ARPT CLOUDY     3  -3  76 NW26G38   30.31S HAZE    WCI -21
$$

NDZ004>008-012>016-024-026-027-054-072000-
NORTHEAST NORTH DAKOTA

CITY           SKY/WX    TMP DP  RH WIND       PRES   REMARKS
GRAND FORKS    LGT SNOW  19  13  77 NW24G32   29.97R BLWGSNOWWCI   2
GRND FRKS AFB  LGT SNOW  18  12  79 NW20      29.98R WCI   1
DEVILS LAKE    SNOW      11   8  88 NW28G36   30.05R VSB 1/2 WCI -10
$$

NDZ022-023-025-028>030-036>039-047>053-072000-
SOUTHEAST NORTH DAKOTA

CITY           SKY/WX    TMP DP  RH WIND       PRES   REMARKS
FARGO          LGT SNOW  15   8  73 W28G36    30.04S WCI  -5
JAMESTOWN      LGT SNOW   9   5  84 NW31G43   30.10R VSB 3/4 WCI -14
$$





USA.gov is the U.S. government's official web portal to all federal, state and local government web resources and services.